CW2157 Weather Reports


time (UTC)temp
F
wind
direction
speed
knots
gust
knots
rain 1hr
in
rain 24hr
in
rain mn
in
humidity
%
barometer
mb
20260509221705 72 202 2.6 5.2 0.00 0.00 0.00 59 1007.1
20260509221205 72 171 3.5 7.0 0.00 0.00 0.00 58 1007.1
20260509220205 73 197 4.3 8.7 0.00 0.00 0.00 57 1007.1
20260509215705 73 174 4.3 10.4 0.00 0.00 0.00 56 1007.1
20260509215205 73 188 4.3 10.4 0.00 0.00 0.00 55 1007.0
20260509214705 74 212 6.1 10.4 0.00 0.00 0.00 53 1007.0
20260509214205 74 205 7.0 8.7 0.00 0.00 0.00 54 1006.9
20260509213705 74 215 6.1 8.7 0.00 0.00 0.00 53 1007.0
20260509212205 74 188 7.0 13.0 0.00 0.00 0.00 54 1006.8
20260509211705 74 186 7.8 12.2 0.00 0.00 0.00 53 1006.7
20260509211205 74 185 7.8 11.3 0.00 0.00 0.00 53 1006.6
20260509210705 74 211 6.1 13.0 0.00 0.00 0.00 56 1006.8
20260509210205 74 218 6.1 10.4 0.00 0.00 0.00 57 1006.8
20260509205705 74 182 7.0 13.9 0.00 0.00 0.00 58 1006.9
20260509205205 74 190 7.8 12.2 0.00 0.00 0.00 56 1006.9
20260509204705 74 201 6.1 7.8 0.00 0.00 0.00 56 1006.9
20260509204205 74 210 6.1 8.7 0.00 0.00 0.00 58 1006.8
20260509203705 74 193 6.1 11.3 0.00 0.00 0.00 58 1006.9
20260509203205 74 225 7.0 11.3 0.00 0.00 0.00 57 1006.9
20260509202705 73 207 6.1 10.4 0.00 0.00 0.00 58 1007.0
20260509201705 73 150 7.0 12.2 0.00 0.00 0.00 60 1007.0
20260509201205 73 179 6.1 12.2 0.00 0.00 0.00 60 1007.0
20260509200704 72 151 6.1 10.4 0.00 0.00 0.00 60 1007.1
20260509200205 72 166 5.2 11.3 0.00 0.00 0.00 63 1007.2
20260509195705 71 204 6.1 11.3 0.00 0.00 0.00 64 1007.3
20260509195206 71 175 6.1 10.4 0.00 0.00 0.00 64 1007.3
20260509194705 71 176 4.3 7.8 0.00 0.00 0.00 63 1007.3
20260509194205 70 153 6.1 12.2 0.00 0.00 0.00 63 1007.4
20260509193705 70 167 5.2 10.4 0.00 0.00 0.00 65 1007.5
20260509193205 70 180 4.3 8.7 0.00 0.00 0.00 63 1007.6
20260509192705 70 195 5.2 8.7 0.00 0.00 0.00 63 1007.6
20260509192205 70 168 4.3 7.0 0.00 0.00 0.00 63 1007.7
20260509191705 70 183 4.3 8.7 0.00 0.00 0.00 61 1008.0
20260509191205 70 210 5.2 8.7 0.00 0.00 0.00 62 1008.2
20260509190705 70 193 4.3 7.0 0.00 0.00 0.00 61 1008.2
20260509190205 71 187 5.2 12.2 0.00 0.00 0.00 61 1008.3
20260509185705 71 242 6.1 12.2 0.00 0.00 0.00 61 1008.4
20260509185205 71 214 7.0 10.4 0.00 0.00 0.00 62 1008.3
20260509184705 71 199 10.4 13.9 0.00 0.00 0.00 60 1008.3
20260509184205 71 190 8.7 12.2 0.00 0.00 0.00 62 1008.3
20260509183705 71 208 6.1 11.3 0.00 0.00 0.00 62 1008.4
20260509182705 70 195 7.8 12.2 0.00 0.00 0.00 62 1008.5
20260509182205 70 214 9.6 13.9 0.00 0.00 0.00 62 1008.5
20260509181705 70 184 7.0 12.2 0.00 0.00 0.00 62 1008.6
20260509181205 70 199 10.4 14.8 0.00 0.00 0.00 63 1008.8
20260509180705 70 227 8.7 13.0 0.00 0.00 0.00 64 1008.8
20260509180205 70 204 8.7 13.0 0.00 0.00 0.00 63 1008.9
20260509175705 70 194 7.8 10.4 0.00 0.00 0.00 63 1009.0
20260509175205 70 220 7.8 13.0 0.00 0.00 0.00 62 1008.9
20260509174705 70 198 7.8 10.4 0.00 0.00 0.00 61 1009.0
20260509174205 70 181 7.8 13.0 0.00 0.00 0.00 61 1009.0
20260509173705 70 198 7.0 13.9 0.00 0.00 0.00 62 1008.9
20260509173205 70 205 9.6 17.4 0.00 0.00 0.00 62 1009.0
20260509172204 70 224 10.4 14.8 0.00 0.00 0.00 60 1008.9
20260509171705 70 205 10.4 14.8 0.00 0.00 0.00 60 1009.0
20260509171205 70 222 10.4 14.8 0.00 0.00 0.00 60 1009.0
20260509170705 70 213 10.4 17.4 0.00 0.00 0.00 60 1009.0
20260509170204 71 203 11.3 17.4 0.00 0.00 0.00 60 1008.9
20260509165705 71 212 10.4 13.0 0.00 0.00 0.00 60 1009.0
20260509165205 71 229 10.4 15.6 0.00 0.00 0.00 60 1009.1
20260509164705 71 217 11.3 15.6 0.00 0.00 0.00 60 1009.3
20260509164205 72 214 9.6 18.2 0.00 0.00 0.00 59 1009.0
20260509163704 72 206 11.3 20.0 0.00 0.00 0.00 59 1009.0
20260509163205 72 197 13.9 22.6 0.00 0.00 0.00 59 1008.9
20260509162705 72 189 10.4 15.6 0.00 0.00 0.00 61 1008.9
20260509162205 72 216 13.0 20.9 0.00 0.00 0.00 60 1009.1
20260509161205 72 203 13.0 19.1 0.00 0.00 0.00 60 1009.5
20260509160705 71 199 13.9 19.1 0.00 0.00 0.00 58 1009.4
20260509160205 71 197 13.9 20.0 0.00 0.00 0.00 62 1009.5
20260509155705 70 210 14.8 17.4 0.00 0.00 0.00 62 1009.5
20260509154705 70 212 10.4 17.4 0.00 0.00 0.00 62 1009.3
20260509154205 69 214 11.3 17.4 0.00 0.00 0.00 62 1009.3
20260509153705 69 197 8.7 14.8 0.00 0.00 0.00 62 1009.4
20260509153205 69 167 8.7 12.2 0.00 0.00 0.00 63 1009.6
20260509152705 68 8 9.6 15.6 0.00 0.00 0.00 64 1009.7
20260509152205 69 58 11.3 17.4 0.00 0.00 0.00 62 1009.7
20260509151705 69 121 10.4 14.8 0.00 0.00 0.00 63 1009.7
20260509151204 69 220 12.2 17.4 0.00 0.00 0.00 63 1009.9
20260509150705 69 226 10.4 17.4 0.00 0.00 0.00 62 1010.0
20260509150205 68 208 13.9 17.4 0.00 0.00 0.00 63 1010.2
20260509145205 68 219 12.2 17.4 0.00 0.00 0.00 64 1010.4
20260509144705 67 191 11.3 15.6 0.00 0.00 0.00 65 1010.4
20260509144205 67 212 11.3 17.4 0.00 0.00 0.00 65 1010.3
20260509143205 67 230 10.4 15.6 0.00 0.00 0.00 66 1010.3
20260509142705 66 193 8.7 13.9 0.00 0.00 0.00 68 1010.4
20260509141205 65 211 10.4 14.8 0.00 0.00 0.00 68 1010.6
20260509140705 65 200 11.3 15.6 0.00 0.00 0.00 69 1010.5
20260509140205 65 194 9.6 13.9 0.00 0.00 0.00 69 1010.5
20260509135705 65 188 10.4 17.4 0.00 0.00 0.00 69 1010.5
20260509135205 65 195 9.6 13.9 0.00 0.00 0.00 69 1010.6
20260509134205 65 209 8.7 15.6 0.00 0.00 0.00 69 1010.6
20260509133705 65 192 8.7 14.8 0.00 0.00 0.00 70 1010.5
20260509133205 65 198 10.4 17.4 0.00 0.00 0.00 69 1010.6
20260509132705 65 183 8.7 14.8 0.00 0.00 0.00 70 1010.6
20260509132205 65 204 11.3 17.4 0.00 0.00 0.00 70 1010.8
20260509131705 65 255 11.3 17.4 0.00 0.00 0.00 71 1010.7
20260509131205 65 213 8.7 17.4 0.00 0.00 0.00 70 1010.6
20260509130705 65 212 12.2 17.4 0.00 0.00 0.00 70 1010.7
20260509130205 65 179 11.3 17.4 0.00 0.00 0.00 71 1010.7
20260509125204 65 216 11.3 14.8 0.00 0.00 0.00 71 1010.7
20260509124705 65 201 11.3 21.7 0.00 0.00 0.00 70 1010.7
20260509124205 64 172 12.2 19.1 0.00 0.00 0.00 71 1010.7
20260509123705 64 215 10.4 14.8 0.00 0.00 0.00 71 1010.7
20260509123205 64 199 11.3 15.6 0.00 0.00 0.00 72 1010.7
20260509122705 63 209 11.3 17.4 0.00 0.00 0.00 74 1010.7
20260509121205 62 203 13.0 18.2 0.00 0.00 0.00 75 1010.8
20260509120705 62 208 11.3 17.4 0.00 0.00 0.00 75 1010.8
20260509120205 62 214 12.2 17.4 0.00 0.00 0.00 76 1010.8
20260509115705 61 207 11.3 17.4 0.00 0.00 0.00 76 1010.7
20260509115205 61 42 8.7 17.4 0.00 0.00 0.00 75 1010.7
20260509114705 61 208 10.4 17.4 0.00 0.00 0.00 76 1010.8
20260509113705 61 205 11.3 15.6 0.00 0.00 0.00 77 1010.7
20260509113204 61 214 11.3 14.8 0.00 0.00 0.00 77 1010.7
20260509112704 60 190 10.4 19.1 0.00 0.00 0.00 78 1010.7
20260509111705 60 194 11.3 19.1 0.00 0.00 0.00 78 1010.7
20260509111205 60 213 11.3 19.1 0.00 0.00 0.00 78 1010.8
20260509110705 60 156 12.2 17.4 0.00 0.00 0.00 79 1010.8
20260509110205 60 294 13.0 19.1 0.00 0.00 0.00 79 1010.7
20260509105705 60 176 10.4 19.1 0.00 0.00 0.00 79 1010.8
20260509105205 60 189 10.4 17.4 0.00 0.00 0.00 79 1010.8
20260509104705 60 206 11.3 17.4 0.00 0.00 0.00 79 1010.8
20260509104205 60 208 11.3 17.4 0.00 0.00 0.00 80 1010.7
20260509103705 60 166 11.3 20.9 0.00 0.00 0.00 79 1010.6
20260509103206 60 193 10.4 17.4 0.00 0.00 0.00 79 1010.5
20260509102704 60 108 11.3 17.4 0.00 0.00 0.00 79 1010.6
20260509102205 60 178 10.4 17.4 0.00 0.00 0.00 79 1010.7
20260509101704 60 176 11.3 19.1 0.00 0.00 0.00 78 1010.7
20260509101205 60 173 7.8 17.4 0.00 0.00 0.00 78 1010.5
20260509100704 60 175 10.4 17.4 0.00 0.00 0.00 78 1010.5
20260509095705 60 196 9.6 17.4 0.00 0.00 0.00 78 1010.5
20260509095205 60 181 7.8 15.6 0.00 0.00 0.00 78 1010.5
20260509094705 60 212 8.7 13.9 0.00 0.00 0.00 77 1010.5
20260509094204 60 274 8.7 13.9 0.00 0.00 0.00 77 1010.4
20260509093705 60 177 9.6 13.0 0.00 0.00 0.00 77 1010.3
20260509092705 60 168 7.8 14.8 0.00 0.00 0.00 77 1010.5
20260509092205 60 173 7.8 13.0 0.00 0.00 0.00 77 1010.5
20260509091705 60 194 7.8 12.2 0.00 0.00 0.00 76 1010.5
20260509091205 60 192 8.7 17.4 0.00 0.00 0.00 77 1010.5
20260509090705 60 228 9.6 13.9 0.00 0.00 0.00 77 1010.4
20260509090205 60 281 10.4 14.8 0.00 0.00 0.00 77 1010.4
20260509085705 60 15 10.4 14.8 0.00 0.00 0.00 76 1010.4
20260509085205 60 336 8.7 14.8 0.00 0.00 0.00 77 1010.4
20260509084705 60 176 8.7 14.8 0.00 0.00 0.00 77 1010.5
20260509084205 60 191 8.7 14.8 0.00 0.00 0.00 76 1010.5
20260509083705 60 214 8.7 11.3 0.00 0.00 0.00 76 1010.6
20260509083205 60 177 7.8 12.2 0.00 0.00 0.00 76 1010.5
20260509082704 61 214 7.8 13.0 0.00 0.00 0.00 76 1010.6
20260509081204 61 190 9.6 14.8 0.00 0.00 0.00 76 1010.6
20260509080704 61 199 10.4 14.8 0.00 0.00 0.00 76 1010.7
20260509080205 61 201 8.7 15.6 0.00 0.00 0.00 75 1010.8
20260509075705 61 186 7.8 17.4 0.00 0.00 0.00 75 1010.8
20260509075204 61 178 10.4 17.4 0.00 0.00 0.00 76 1010.8
20260509074705 61 180 7.0 12.2 0.00 0.00 0.00 76 1010.7
20260509074204 61 192 8.7 12.2 0.00 0.00 0.00 75 1010.6
20260509073704 60 192 7.8 17.4 0.00 0.00 0.00 75 1010.8
20260509072704 60 15 8.7 13.9 0.00 0.00 0.00 75 1010.8
20260509072204 60 174 10.4 13.9 0.00 0.00 0.00 76 1010.9
20260509071705 60 157 10.4 15.6 0.00 0.00 0.00 76 1011.0
20260509071205 60 172 8.7 13.0 0.00 0.00 0.00 76 1011.0
20260509070205 60 215 7.8 13.9 0.00 0.00 0.00 76 1011.0
20260509065705 60 204 8.7 15.6 0.00 0.00 0.00 76 1011.0
20260509065205 60 191 9.6 13.9 0.00 0.00 0.00 76 1011.1
20260509064205 60 199 10.4 15.6 0.00 0.00 0.00 76 1011.1
20260509063705 60 180 13.0 18.2 0.00 0.00 0.00 75 1011.1
20260509063205 60 183 10.4 15.6 0.00 0.00 0.00 75 1011.2
20260509062705 60 182 10.4 17.4 0.00 0.00 0.00 75 1011.2
20260509062205 60 270 10.4 17.4 0.00 0.00 0.00 75 1011.3
20260509061705 60 238 12.2 17.4 0.00 0.00 0.00 76 1011.3
20260509061204 60 205 9.6 14.8 0.00 0.00 0.00 76 1011.2
20260509060704 60 204 9.6 15.6 0.00 0.00 0.00 76 1011.2
20260509060204 60 204 8.7 13.9 0.00 0.00 0.00 76 1011.3
20260509055704 60 198 10.4 17.4 0.00 0.00 0.00 75 1011.4
20260509055204 60 198 9.6 14.8 0.00 0.00 0.00 75 1011.3
20260509054704 60 223 10.4 15.6 0.00 0.00 0.00 75 1011.3
20260509053705 60 294 10.4 14.8 0.00 0.00 0.00 76 1011.4
20260509053204 60 172 9.6 17.4 0.00 0.00 0.00 76 1011.5
20260509052705 60 188 10.4 15.6 0.00 0.00 0.00 76 1011.4
20260509052205 60 215 8.7 13.9 0.00 0.00 0.00 77 1011.4
20260509051705 60 192 9.6 19.1 0.00 0.00 0.00 76 1011.4
20260509050705 60 196 7.8 15.6 0.00 0.00 0.00 76 1011.4
20260509050205 60 194 9.6 18.2 0.00 0.00 0.00 76 1011.5
20260509045705 60 227 10.4 15.6 0.00 0.00 0.00 75 1011.4
20260509045205 60 220 8.7 15.6 0.00 0.00 0.00 75 1011.5
20260509044705 60 185 8.7 15.6 0.00 0.00 0.00 75 1011.4
20260509044205 60 191 9.6 19.1 0.00 0.00 0.00 74 1011.5
20260509042704 60 246 9.6 17.4 0.00 0.00 0.00 73 1011.5
20260509042205 60 212 11.3 17.4 0.00 0.00 0.00 73 1011.5
20260509041704 60 199 9.6 17.4 0.00 0.00 0.00 74 1011.5
20260509041204 60 188 9.6 12.2 0.00 0.00 0.00 74 1011.6
20260509040704 60 181 10.4 14.8 0.00 0.00 0.00 75 1011.7
20260509035705 60 190 8.7 17.4 0.00 0.00 0.00 75 1011.8
20260509035205 60 177 8.7 14.8 0.00 0.00 0.00 74 1011.9
20260509034204 60 202 7.8 14.8 0.00 0.00 0.00 74 1011.8
20260509033705 60 191 8.7 13.0 0.00 0.00 0.00 74 1011.7
20260509033205 60 210 8.7 14.8 0.00 0.00 0.00 74 1011.7
20260509032205 60 178 9.6 14.8 0.00 0.00 0.00 73 1011.8
20260509031705 60 194 10.4 14.8 0.00 0.00 0.00 73 1012.0
20260509031204 60 184 7.8 13.9 0.00 0.00 0.00 72 1012.0
20260509030705 60 190 7.8 13.9 0.00 0.00 0.00 71 1012.0
20260509024705 61 192 9.6 14.8 0.00 0.00 0.00 69 1011.8
20260509023705 61 181 10.4 17.4 0.00 0.00 0.00 69 1011.7
20260509023205 61 190 10.4 15.6 0.00 0.00 0.00 69 1011.8
20260509022704 61 213 10.4 15.6 0.00 0.00 0.00 68 1011.7
20260509022205 61 183 7.8 17.4 0.00 0.00 0.00 68 1011.7
20260509021705 61 181 10.4 15.6 0.00 0.00 0.00 68 1011.7
20260509021204 61 196 8.7 14.8 0.00 0.00 0.00 68 1011.8
20260509020205 61 197 8.7 12.2 0.00 0.00 0.00 67 1011.8
20260509015205 61 206 8.7 13.9 0.00 0.00 0.00 66 1011.8
20260509014205 61 188 9.6 15.6 0.00 0.00 0.00 66 1011.7
20260509013705 61 195 8.7 14.8 0.00 0.00 0.00 66 1011.7
20260509013205 61 193 8.7 12.2 0.00 0.00 0.00 66 1011.7
20260509012205 61 191 9.6 14.8 0.00 0.00 0.00 65 1011.7
20260509011205 62 223 8.7 14.8 0.00 0.00 0.00 65 1011.5
20260509010704 62 196 8.7 14.8 0.00 0.00 0.00 64 1011.5
20260509010204 62 191 9.6 15.6 0.00 0.00 0.00 64 1011.4
20260509005704 62 195 8.7 14.8 0.00 0.00 0.00 63 1011.4
20260509005204 62 193 8.7 17.4 0.00 0.00 0.00 64 1011.3
20260509004704 62 174 8.7 14.8 0.00 0.00 0.00 63 1011.2
20260509004204 62 184 8.7 17.4 0.00 0.00 0.00 62 1011.2
20260509003704 62 186 7.8 15.6 0.00 0.00 0.00 62 1011.2
20260509003204 62 204 11.3 18.2 0.00 0.00 0.00 62 1011.0
20260509002204 62 195 7.8 13.0 0.00 0.00 0.00 61 1011.0
20260509001704 62 184 7.8 13.0 0.00 0.00 0.00 61 1010.9
20260509000704 63 211 6.1 13.0 0.00 0.00 0.00 59 1010.9
20260509000204 63 183 7.8 13.9 0.00 0.00 0.00 59 1010.9
20260508235704 63 192 7.8 14.8 0.00 0.00 0.00 59 1010.8
20260508234704 63 186 7.8 13.0 0.00 0.00 0.00 57 1010.8
20260508234204 63 195 6.1 12.2 0.00 0.00 0.00 58 1010.8
20260508233704 63 189 7.8 15.6 0.00 0.00 0.00 56 1010.7
20260508232705 63 199 10.4 17.4 0.00 0.00 0.00 54 1010.7
20260508232204 63 193 8.7 14.8 0.00 0.00 0.00 54 1010.7
20260508231204 63 198 9.6 14.8 0.00 0.00 0.00 53 1010.7
20260508230704 64 178 11.3 17.4 0.00 0.00 0.00 52 1010.6
20260508230205 64 196 8.7 14.8 0.00 0.00 0.00 54 1010.7
20260508225704 64 200 8.7 13.9 0.00 0.00 0.00 53 1010.6
20260508225204 64 196 11.3 15.6 0.00 0.00 0.00 51 1010.7
20260508224704 64 194 11.3 17.4 0.00 0.00 0.00 52 1010.6
20260508224205 64 188 10.4 17.4 0.00 0.00 0.00 51 1010.6
20260508223704 64 194 10.4 20.0 0.00 0.00 0.00 53 1010.5
20260508223204 64 204 11.3 20.0 0.00 0.00 0.00 52 1010.5